Regional Weather Roundup
Issued by NWS

Home | Current Version | Previous Version | Graphics & Text | Print | Product List | Glossary On
Versions: 1 2 3 4 5 6 7 8 9 10 11 12 13 14 15 16 17 18 19 20 21 22 23 24 25 26 27 28 29 30 31 32 33 34 35 36 37 38 39 40 41 42 43 44 45 46 47 48 49 50
000
ASUS43 KDTX 261610
RWRMI
MICHIGAN HOURLY REGIONAL WEATHER ROUNDUP
NATIONAL WEATHER SERVICE DETROIT/PONTIAC MI
1200 PM EDT SUN APR 26 2015

NOTE: "FAIR" INDICATES FEW OR NO CLOUDS BELOW 12,000 FEET WITH NO
SIGNIFICANT WEATHER AND/OR OBSTRUCTION TO VISIBILITY.

MIZ047>049-052>055-059>063-066>070-074>076-081>083-261700-
SOUTHEAST LOWER MICHIGAN

CITY           SKY/WX    TMP DP  RH WIND       PRES   REMARKS
ADRIAN         SUNNY     52  29  41 NE12      29.93R
ALMA           SUNNY     52  27  38 N8        29.96F
ANN ARBOR      SUNNY     54  27  35 NE12      29.92R
BAD AXE        MOSUNNY   47  32  55 N10G16    29.95S
CARO           SUNNY     50  34  54 N5        29.94F
DETROIT CITY   SUNNY     53  29  39 VRB5      29.91F
DETROIT        MOSUNNY   55  28  35 N12G17    29.92S
FLINT          SUNNY     54  28  36 NE10      29.94F
GROSSE ILE     SUNNY     54  27  35 NE10      29.90S
HILLSDALE      SUNNY     51  28  41 NE8G18    29.93R
HOWELL         SUNNY     51  26  38 NE10G20   29.93S

CITY           SKY/WX    TMP DP  RH WIND       PRES   REMARKS
JACKSON        SUNNY     52  28  39 N10G20    29.94R
LAMBERTVILLE   SUNNY     54  28  37 N13       29.92R
LANSING        SUNNY     52  29  41 N10       29.96S
LAPEER         FAIR      52  28  39 N12       29.92S
MASON          MOSUNNY   51  28  40 N12G18    29.94S
MONROE         SUNNY     54  28  37 NE9G18    29.90R
MT. CLEMENS    MOSUNNY   54  29  38 NE10      29.88S
PONTIAC        PTSUNNY   52  28  39 N14       29.91S
PORT HOPE        N/A     44  35  70 N7        29.95S
PORT HURON     SUNNY     50  30  46 N6G18     29.92R
TRI CITIES     SUNNY     51  32  48 N12       29.97R
MIDLAND        FAIR      53  30  40 N8G16     29.96S
TROY           MOSUNNY   54  26  34 NE12G18   29.93S
SAGINAW HB     SUNNY     50  32  50 N9        29.96S
$$
MIZ043>046-050>051-056>058-064>065-071>073-077>080-261700-
SOUTHWEST LOWER MICHIGAN

CITY           SKY/WX    TMP DP  RH WIND       PRES   REMARKS
BATTLE CREEK   MOSUNNY   52  28  39 NE17      29.97R
BENTON HARBOR  SUNNY     45  30  55 N7        30.01R
BIG RAPIDS     MOSUNNY   53  25  33 N3        29.97S
COLDWATER      MOSUNNY   50  29  44 N10       29.95R
FREMONT        FAIR      54  24  31 N8        29.99S
HOLLAND        SUNNY     55  28  35 N9G17     29.99S
GRAND RAPIDS   MOSUNNY   53  26  35 N9G21     29.98R
IONIA          FAIR      52  28  38 N6        29.97S
KALAMAZOO      SUNNY     52  27  38 NE12G18   29.98R
LUDINGTON      SUNNY     52  29  41 N10       30.03S
MARSHALL       PTSUNNY   51  29  43 N6        29.95S
MOUNT PLEASANT SUNNY     53  29  39 N10       29.96S
MUSKEGON       MOSUNNY   56  26  31 NE10      30.00S
SOUTH HAVEN    SUNNY     49  31  50 NW8       30.00S
$$
MIZ016>042-261700-
NORTHERN LOWER MICHIGAN

CITY           SKY/WX    TMP DP  RH WIND       PRES   REMARKS
BEAVER ISLAND  SUNNY     49  27  42 N8        30.03S
BELLAIRE       SUNNY     50  28  42 W7        30.01S
CADILLAC       MOSUNNY   51  27  39 N9G20     29.98S
CHARLEVOIX     SUNNY     40  32  71 NW8       30.06R
FRANKFORT      SUNNY     51  26  38 N7        30.04R
GAYLORD        SUNNY     49  24  37 N8G17     29.97S
GRAYLING       PTSUNNY   51  26  37 NW10      29.97F
HARBOR SPRINGS PTSUNNY   40  32  75 SW7       30.01S WCI  35
HOUGHTON LAKE  MOSUNNY   52  24  33 NW12      29.96F
MANISTEE       SUNNY     46  30  53 NW9       30.04S
OSCODA         CLOUDY    50  31  46 NE12      29.95F
PELLSTON       MOSUNNY   50  28  42 N8        30.01S
ROGERS CITY    PTSUNNY   43  31  63 N9        30.01F
TRAVERSE CITY  MOSUNNY   48  30  49 N5        30.01F
$$
MIZ007>008-015-261700-
EASTERN UPPER MICHIGAN

CITY           SKY/WX    TMP DP  RH WIND       PRES   REMARKS
KINROSS        PTSUNNY   43  30  61 N10       30.02S
MACKINAC ISLAN MOSUNNY   47  30  52 N6        30.01S
NEWBERRY       SUNNY     43  32  65 NW13G22   30.04R
S. S. MARIE    CLOUDY    44  31  60 NW7       30.01F
MUNISING         N/A     39  30  70 N14       30.10R WCI  31
$$
MIZ004>006-011>014-085-261700-
CENTRAL UPPER MICHIGAN

CITY           SKY/WX    TMP DP  RH WIND       PRES   REMARKS
MANISTIQUE     SUNNY     52  30  43 N15G22    30.04S
ESCANABA       SUNNY     52  25  35 N12G22    30.06S
MENOMINEE      SUNNY     50  27  40 SE6       30.06F
SAWYER-GWINN   SUNNY     41  28  60 NE16      30.09R
$$
MIZ001>003-009>011-084-261700-
WESTERN UPPER MICHIGAN

CITY           SKY/WX    TMP DP  RH WIND       PRES   REMARKS
IRON MOUNTAIN  SUNNY     52  20  28 N14G21    30.06R
HOUGHTON       MOSUNNY   45  28  51 MISG      30.13R
COPPER HARBOR    N/A     38  31  76 NE5       30.16R WCI  34
IRONWOOD       SUNNY     46  25  42 N8        30.12S
$$

ABBREVIATIONS USED IN REMARKS
   TC - TEMPERATURE IN CELSIUS
  WCI - WIND CHILL INDEX
   HX - HEAT INDEX
  VSB - VISIBILITY



USA.gov is the U.S. government's official web portal to all federal, state and local government web resources and services.